RXA4631 YPAD-YMTG

Flight info

Callsign RXA4631
Flight time 0h 52m
Altitude 19000
Route DCT AD W519 MTG DCT YMTG
Aircraft SF34/M-V/N

Departure

Time 2026-05-07 08:49
Airport Adelaide International Airport (YPAD)

Arrival

Time 2026-05-07 09:41
Airport Mount Gambier Airport (YMTG)
Time Latitude Longitude Altitude Speed Heading
2026-05-07 08:23 -34.93692 138.54156 47 ft 0 kts 185°
2026-05-07 08:44 -34.93694 138.54156 47 ft 2 kts 185°
2026-05-07 08:44 -34.93737 138.54189 45 ft 10 kts 140°
2026-05-07 08:45 -34.93795 138.54221 42 ft 7 kts 225°
2026-05-07 08:45 -34.93822 138.54172 40 ft 9 kts 232°
2026-05-07 08:45 -34.93869 138.54128 39 ft 7 kts 182°
2026-05-07 08:45 -34.93919 138.54163 37 ft 10 kts 140°
2026-05-07 08:46 -34.93975 138.54221 35 ft 10 kts 140°
2026-05-07 08:46 -34.94003 138.54248 35 ft 0 kts 140°
2026-05-07 08:47 -34.94006 138.54251 35 ft 2 kts 140°
2026-05-07 08:48 -34.94035 138.54280 35 ft 9 kts 141°
2026-05-07 08:48 -34.94089 138.54289 36 ft 1 kts 231°
2026-05-07 08:48 -34.94096 138.54279 36 ft 11 kts 231°
2026-05-07 08:48 -34.94378 138.53867 31 ft 110 kts 231°
2026-05-07 08:49 -34.95041 138.52924 381 ft 156 kts 226°
2026-05-07 08:49 -34.95844 138.51794 1128 ft 174 kts 227°
2026-05-07 08:49 -34.96743 138.50519 1926 ft 183 kts 227°
2026-05-07 08:49 -34.97639 138.49298 2906 ft 176 kts 218°
2026-05-07 08:50 -34.98827 138.48712 3651 ft 174 kts 188°
2026-05-07 08:50 -35.00096 138.48811 4022 ft 184 kts 169°
2026-05-07 08:50 -35.01194 138.49672 4623 ft 181 kts 139°
2026-05-07 08:50 -35.02027 138.50728 5315 ft 172 kts 139°
2026-05-07 08:51 -35.02760 138.51649 5799 ft 173 kts 139°
2026-05-07 08:51 -35.03642 138.52754 6334 ft 175 kts 139°
2026-05-07 08:51 -35.04513 138.53842 6839 ft 178 kts 140°
2026-05-07 08:51 -35.05388 138.54935 7321 ft 180 kts 140°
2026-05-07 08:52 -35.06275 138.56038 7785 ft 183 kts 140°
2026-05-07 08:52 -35.07180 138.57165 8235 ft 185 kts 140°
2026-05-07 08:52 -35.08136 138.58357 8688 ft 188 kts 140°
2026-05-07 08:52 -35.09120 138.59582 9130 ft 190 kts 140°
2026-05-07 08:53 -35.10095 138.60796 9548 ft 193 kts 139°
2026-05-07 08:53 -35.11033 138.61966 9934 ft 195 kts 139°
2026-05-07 08:53 -35.11983 138.63152 10376 ft 194 kts 139°
2026-05-07 08:53 -35.12930 138.64333 10774 ft 195 kts 139°
2026-05-07 08:54 -35.13913 138.65558 11162 ft 197 kts 139°
2026-05-07 08:54 -35.14709 138.66551 11466 ft 199 kts 139°
2026-05-07 08:54 -35.15754 138.67856 11852 ft 201 kts 138°
2026-05-07 08:54 -35.16760 138.69113 12212 ft 203 kts 138°
2026-05-07 08:55 -35.17771 138.70380 12564 ft 205 kts 138°
2026-05-07 08:55 -35.18766 138.71626 12897 ft 207 kts 139°
2026-05-07 08:55 -35.19781 138.72896 13224 ft 208 kts 139°
2026-05-07 08:55 -35.20784 138.74152 13513 ft 211 kts 139°
2026-05-07 08:56 -35.21830 138.75459 13765 ft 216 kts 139°
2026-05-07 08:56 -35.22880 138.76775 14013 ft 219 kts 139°
2026-05-07 08:56 -35.23945 138.78108 14261 ft 221 kts 139°
2026-05-07 08:56 -35.25024 138.79462 14510 ft 222 kts 139°
2026-05-07 08:57 -35.26108 138.80821 14758 ft 224 kts 139°
2026-05-07 08:57 -35.27192 138.82181 15004 ft 224 kts 139°
2026-05-07 08:57 -35.28283 138.83550 15251 ft 225 kts 139°
2026-05-07 08:57 -35.29371 138.84917 15498 ft 225 kts 139°
2026-05-07 08:58 -35.30472 138.86299 15746 ft 226 kts 139°
2026-05-07 08:58 -35.31593 138.87707 15999 ft 226 kts 139°
2026-05-07 08:58 -35.32701 138.89099 16252 ft 231 kts 139°
2026-05-07 08:58 -35.33818 138.90503 16500 ft 235 kts 139°
2026-05-07 08:59 -35.34980 138.91963 16754 ft 238 kts 139°
2026-05-07 08:59 -35.36140 138.93425 17004 ft 240 kts 139°
2026-05-07 08:59 -35.37303 138.94888 17253 ft 242 kts 139°
2026-05-07 08:59 -35.38482 138.96373 17503 ft 243 kts 139°
2026-05-07 09:00 -35.39672 138.97875 17754 ft 244 kts 140°
2026-05-07 09:00 -35.40845 138.99353 18001 ft 244 kts 140°
2026-05-07 09:00 -35.42036 139.00856 18252 ft 245 kts 140°
2026-05-07 09:00 -35.43234 139.02368 18504 ft 245 kts 140°
2026-05-07 09:01 -35.44596 139.04088 18790 ft 245 kts 140°
2026-05-07 09:01 -35.45948 139.05797 19074 ft 245 kts 140°
2026-05-07 09:01 -35.47125 139.07285 19322 ft 245 kts 140°
2026-05-07 09:01 -35.48322 139.08798 19574 ft 245 kts 140°
2026-05-07 09:02 -35.49518 139.10310 19826 ft 245 kts 141°
2026-05-07 09:02 -35.50737 139.11853 20084 ft 245 kts 141°
2026-05-07 09:02 -35.51959 139.13400 20342 ft 245 kts 141°
2026-05-07 09:02 -35.53212 139.14987 20605 ft 245 kts 141°
2026-05-07 09:03 -35.54463 139.16574 20867 ft 245 kts 141°
2026-05-07 09:03 -35.55664 139.18094 21018 ft 250 kts 141°
2026-05-07 09:03 -35.56873 139.19626 21150 ft 254 kts 141°
2026-05-07 09:03 -35.58117 139.21204 21282 ft 257 kts 141°
2026-05-07 09:04 -35.59375 139.22800 21380 ft 263 kts 141°
2026-05-07 09:04 -35.60661 139.24432 21446 ft 271 kts 141°
2026-05-07 09:04 -35.61996 139.26126 21458 ft 280 kts 140°
2026-05-07 09:04 -35.63373 139.27878 21459 ft 286 kts 140°
2026-05-07 09:05 -35.64766 139.29649 21458 ft 291 kts 140°
2026-05-07 09:05 -35.66190 139.31465 21463 ft 295 kts 140°
2026-05-07 09:05 -35.67608 139.33272 21465 ft 298 kts 140°
2026-05-07 09:05 -35.69115 139.34988 21455 ft 292 kts 154°
2026-05-07 09:06 -35.70870 139.36238 21464 ft 289 kts 160°
2026-05-07 09:06 -35.72662 139.37427 21461 ft 291 kts 160°
2026-05-07 09:06 -35.74423 139.38605 21461 ft 292 kts 160°
2026-05-07 09:06 -35.76364 139.39914 21459 ft 293 kts 160°
2026-05-07 09:07 -35.78308 139.41226 21457 ft 293 kts 160°
2026-05-07 09:07 -35.80090 139.42433 21458 ft 292 kts 160°
2026-05-07 09:07 -35.81851 139.43630 21455 ft 286 kts 160°
2026-05-07 09:07 -35.83575 139.44798 21458 ft 287 kts 160°
2026-05-07 09:08 -35.85330 139.45987 21460 ft 291 kts 160°
2026-05-07 09:08 -35.87114 139.47195 21460 ft 294 kts 160°
2026-05-07 09:08 -35.88908 139.48413 21463 ft 296 kts 159°
2026-05-07 09:08 -35.90723 139.49648 21465 ft 297 kts 159°
2026-05-07 09:09 -35.92518 139.50868 21464 ft 298 kts 159°
2026-05-07 09:09 -35.94340 139.52109 21460 ft 297 kts 159°
2026-05-07 09:09 -35.96132 139.53330 21458 ft 295 kts 159°
2026-05-07 09:09 -35.97927 139.54552 21459 ft 294 kts 160°
2026-05-07 09:10 -35.99695 139.55797 21459 ft 295 kts 158°
2026-05-07 09:10 -36.01463 139.57089 21459 ft 294 kts 158°
2026-05-07 09:10 -36.03208 139.58371 21460 ft 294 kts 158°
2026-05-07 09:10 -36.05009 139.59697 21460 ft 294 kts 157°
2026-05-07 09:11 -36.06775 139.61000 21460 ft 294 kts 157°
2026-05-07 09:11 -36.07855 139.61798 21460 ft 294 kts 157°
2026-05-07 09:11 -36.08997 139.62642 21461 ft 294 kts 158°
2026-05-07 09:11 -36.10731 139.63925 21459 ft 294 kts 158°
2026-05-07 09:12 -36.12482 139.65218 21455 ft 294 kts 157°
2026-05-07 09:12 -36.14234 139.66515 21448 ft 293 kts 157°
2026-05-07 09:12 -36.15977 139.67804 21447 ft 292 kts 157°
2026-05-07 09:12 -36.17717 139.69095 21448 ft 292 kts 157°
2026-05-07 09:13 -36.19466 139.70390 21448 ft 292 kts 157°
2026-05-07 09:13 -36.21200 139.71677 21448 ft 291 kts 157°
2026-05-07 09:13 -36.22946 139.72971 21448 ft 291 kts 157°
2026-05-07 09:13 -36.24666 139.74249 21449 ft 291 kts 157°
2026-05-07 09:14 -36.26406 139.75540 21449 ft 291 kts 157°
2026-05-07 09:14 -36.28143 139.76831 21449 ft 291 kts 157°
2026-05-07 09:14 -36.29888 139.78130 21449 ft 291 kts 157°
2026-05-07 09:14 -36.31628 139.79423 21449 ft 291 kts 157°
2026-05-07 09:15 -36.33350 139.80704 21450 ft 292 kts 157°
2026-05-07 09:15 -36.35097 139.82005 21450 ft 292 kts 157°
2026-05-07 09:15 -36.36844 139.83307 21450 ft 292 kts 157°
2026-05-07 09:15 -36.38586 139.84605 21450 ft 292 kts 157°
2026-05-07 09:16 -36.40323 139.85901 21450 ft 292 kts 157°
2026-05-07 09:16 -36.42051 139.87190 21450 ft 292 kts 157°
2026-05-07 09:16 -36.43790 139.88489 21451 ft 292 kts 157°
2026-05-07 09:16 -36.45528 139.89787 21450 ft 292 kts 157°
2026-05-07 09:17 -36.47371 139.91164 21451 ft 292 kts 157°
2026-05-07 09:17 -36.49227 139.92554 21451 ft 292 kts 157°
2026-05-07 09:17 -36.50507 139.93510 21451 ft 292 kts 157°
2026-05-07 09:18 -36.51895 139.94550 21452 ft 292 kts 157°
2026-05-07 09:18 -36.53498 139.95750 21452 ft 292 kts 157°
2026-05-07 09:18 -36.55217 139.97038 21452 ft 292 kts 157°
2026-05-07 09:18 -36.56954 139.98340 21424 ft 287 kts 157°
2026-05-07 09:19 -36.58643 139.99608 21046 ft 283 kts 157°
2026-05-07 09:19 -36.60392 140.00920 20655 ft 282 kts 157°
2026-05-07 09:19 -36.62043 140.02159 20286 ft 280 kts 156°
2026-05-07 09:19 -36.63715 140.03413 19910 ft 279 kts 156°
2026-05-07 09:20 -36.65373 140.04660 19560 ft 277 kts 156°
2026-05-07 09:20 -36.67003 140.05887 19313 ft 271 kts 156°
2026-05-07 09:20 -36.68613 140.07100 19060 ft 267 kts 156°
2026-05-07 09:20 -36.70192 140.08289 18810 ft 264 kts 156°
2026-05-07 09:21 -36.71749 140.09460 18561 ft 261 kts 156°
2026-05-07 09:21 -36.73299 140.10628 18311 ft 259 kts 156°
2026-05-07 09:21 -36.74899 140.11833 18053 ft 257 kts 156°
2026-05-07 09:21 -36.76535 140.13066 17787 ft 256 kts 156°
2026-05-07 09:22 -36.78134 140.14273 17526 ft 255 kts 156°
2026-05-07 09:22 -36.79636 140.15407 17280 ft 254 kts 156°
2026-05-07 09:22 -36.81275 140.16644 17014 ft 253 kts 156°
2026-05-07 09:22 -36.82926 140.17891 16746 ft 252 kts 156°
2026-05-07 09:23 -36.84459 140.19051 16497 ft 251 kts 155°
2026-05-07 09:23 -36.85966 140.20190 16251 ft 250 kts 155°
2026-05-07 09:23 -36.87551 140.21390 15992 ft 249 kts 155°
2026-05-07 09:23 -36.89226 140.22658 15718 ft 249 kts 155°
2026-05-07 09:24 -36.90877 140.23909 15447 ft 248 kts 155°
2026-05-07 09:24 -36.92477 140.25122 15184 ft 248 kts 155°
2026-05-07 09:24 -36.94098 140.26350 14917 ft 247 kts 155°
2026-05-07 09:24 -36.95740 140.27596 14646 ft 247 kts 155°
2026-05-07 09:25 -36.97335 140.28807 14382 ft 246 kts 155°
2026-05-07 09:25 -36.98784 140.29907 14142 ft 246 kts 155°
2026-05-07 09:25 -37.00291 140.31053 13892 ft 245 kts 155°
2026-05-07 09:25 -37.01850 140.32239 13633 ft 245 kts 154°
2026-05-07 09:26 -37.03431 140.33440 13371 ft 245 kts 154°
2026-05-07 09:26 -37.05015 140.34647 13109 ft 245 kts 154°
2026-05-07 09:26 -37.06603 140.35855 12845 ft 245 kts 154°
2026-05-07 09:26 -37.08190 140.37064 12582 ft 245 kts 154°
2026-05-07 09:27 -37.09773 140.38271 12320 ft 245 kts 154°
2026-05-07 09:27 -37.11326 140.39453 12061 ft 245 kts 154°
2026-05-07 09:27 -37.14539 140.41907 11248 ft 244 kts 155°
2026-05-07 09:28 -37.16183 140.43161 10826 ft 243 kts 155°
2026-05-07 09:28 -37.17683 140.44308 10440 ft 242 kts 155°
2026-05-07 09:28 -37.19196 140.45464 10048 ft 240 kts 155°
2026-05-07 09:28 -37.20705 140.46617 9654 ft 239 kts 155°
2026-05-07 09:29 -37.22201 140.47761 9262 ft 237 kts 155°
2026-05-07 09:29 -37.23606 140.48836 8891 ft 236 kts 155°
2026-05-07 09:29 -37.25007 140.49908 8519 ft 234 kts 155°
2026-05-07 09:29 -37.26620 140.51144 8089 ft 233 kts 155°
2026-05-07 09:30 -37.27866 140.52100 7754 ft 231 kts 155°
2026-05-07 09:30 -37.29271 140.53177 7376 ft 230 kts 155°
2026-05-07 09:30 -37.30633 140.54221 7008 ft 228 kts 154°
2026-05-07 09:30 -37.31982 140.55255 6641 ft 227 kts 154°
2026-05-07 09:31 -37.33345 140.56300 6267 ft 226 kts 154°
2026-05-07 09:31 -37.34729 140.57364 5885 ft 224 kts 154°
2026-05-07 09:31 -37.36079 140.58400 5511 ft 223 kts 154°
2026-05-07 09:31 -37.37482 140.59479 5117 ft 222 kts 154°
2026-05-07 09:32 -37.38846 140.60529 4836 ft 219 kts 154°
2026-05-07 09:32 -37.40261 140.61616 4566 ft 218 kts 154°
2026-05-07 09:32 -37.41660 140.62694 4294 ft 211 kts 154°
2026-05-07 09:32 -37.42938 140.63680 4028 ft 201 kts 154°
2026-05-07 09:33 -37.44228 140.64674 3751 ft 194 kts 154°
2026-05-07 09:33 -37.45359 140.65547 3597 ft 183 kts 153°
2026-05-07 09:33 -37.46556 140.66470 3425 ft 179 kts 154°
2026-05-07 09:33 -37.47718 140.67364 3270 ft 180 kts 153°
2026-05-07 09:34 -37.48935 140.68301 3113 ft 180 kts 153°
2026-05-07 09:34 -37.50146 140.69235 2946 ft 181 kts 153°
2026-05-07 09:34 -37.51380 140.70189 2775 ft 181 kts 153°
2026-05-07 09:34 -37.52600 140.71132 2727 ft 177 kts 153°
2026-05-07 09:35 -37.53562 140.72366 2720 ft 178 kts 124°
2026-05-07 09:35 -37.54126 140.73753 2716 ft 173 kts 121°
2026-05-07 09:35 -37.54658 140.75122 2718 ft 172 kts 121°
2026-05-07 09:35 -37.55183 140.76479 2721 ft 172 kts 121°
2026-05-07 09:36 -37.55734 140.77907 2722 ft 172 kts 121°
2026-05-07 09:36 -37.56267 140.79298 2722 ft 159 kts 121°
2026-05-07 09:36 -37.56885 140.80479 2721 ft 139 kts 150°
2026-05-07 09:36 -37.57788 140.80820 2734 ft 131 kts 182°
2026-05-07 09:37 -37.58720 140.80814 2734 ft 137 kts 186°
2026-05-07 09:37 -37.59676 140.80747 2734 ft 137 kts 188°
2026-05-07 09:37 -37.60636 140.80653 2714 ft 127 kts 189°
2026-05-07 09:37 -37.61545 140.80553 2691 ft 123 kts 190°
2026-05-07 09:38 -37.62425 140.80444 2652 ft 130 kts 190°
2026-05-07 09:38 -37.63410 140.80321 2482 ft 129 kts 190°
2026-05-07 09:38 -37.64382 140.80200 2313 ft 129 kts 191°
2026-05-07 09:38 -37.65347 140.80109 2180 ft 124 kts 188°
2026-05-07 09:39 -37.66278 140.80067 2004 ft 123 kts 187°
2026-05-07 09:39 -37.67166 140.80022 1786 ft 122 kts 191°
2026-05-07 09:39 -37.68051 140.79889 1571 ft 118 kts 194°
2026-05-07 09:39 -37.68967 140.79721 1358 ft 119 kts 194°
2026-05-07 09:40 -37.69888 140.79561 1148 ft 119 kts 193°
2026-05-07 09:40 -37.70746 140.79413 908 ft 113 kts 193°
2026-05-07 09:40 -37.71615 140.79295 759 ft 117 kts 191°
2026-05-07 09:40 -37.72505 140.79178 589 ft 118 kts 191°
2026-05-07 09:41 -37.73329 140.79063 395 ft 114 kts 192°
2026-05-07 09:41 -37.74119 140.78958 234 ft 110 kts 192°
2026-05-07 09:41 -37.74837 140.78860 209 ft 82 kts 189°
2026-05-07 09:41 -37.75185 140.78818 202 ft 32 kts 188°
2026-05-07 09:42 -37.75362 140.78796 198 ft 20 kts 180°
2026-05-07 09:42 -37.75474 140.78813 196 ft 10 kts 192°
2026-05-07 09:42 -37.75458 140.78780 196 ft 12 kts 12°
2026-05-07 09:42 -37.75294 140.78806 199 ft 29 kts
2026-05-07 09:43 -37.75260 140.78810 200 ft 30 kts 10°
2026-05-07 09:43 -37.75051 140.78836 205 ft 20 kts 360°
2026-05-07 09:43 -37.74964 140.78729 206 ft 19 kts 301°
2026-05-07 09:43 -37.74881 140.78555 207 ft 23 kts 301°
2026-05-07 09:44 -37.74791 140.78368 206 ft 22 kts 302°
2026-05-07 09:44 -37.74706 140.78191 207 ft 19 kts 300°
2026-05-07 09:44 -37.74634 140.78038 209 ft 17 kts 300°
2026-05-07 09:44 -37.74569 140.78000 210 ft 13 kts 73°
2026-05-07 09:45 -37.74570 140.78128 210 ft 12 kts 93°
2026-05-07 09:45 -37.74567 140.78238 210 ft 10 kts 86°
2026-05-07 09:45 -37.74553 140.78330 213 ft 8 kts 74°
2026-05-07 09:45 -37.74521 140.78348 214 ft 5 kts 327°
2026-05-07 09:46 -37.74515 140.78299 212 ft 3 kts 251°
2026-05-07 09:46 -37.74521 140.78271 211 ft 3 kts 275°
2026-05-07 09:46 -37.74504 140.78267 211 ft 0 kts 34°
2026-05-07 09:46 -37.74501 140.78268 212 ft 0 kts 28°